Zurück zum Katalog

LEMUR 2 MJR092620

AktivWetterSSO
NORAD 58340·PAYLOAD·🇺🇸 United States

Gestartet Nov 11, 2023 von Vandenberg Space Force Base

Loading…

Nächste Überflüge (nächste 24 Stunden)

TLE

AktuellSource: Space-Track

Epoche: Sep 13, 2026, 19:26 UTC

1 58340U 23174CN  26256.81020702  .00016084  00000-0  31055-3 0  9994
2 58340  97.3958 348.6544 0006278 146.5705 213.5943 15.47866865159343

Verfolge LEMUR 2 MJR092620 in Echtzeit mit AllMySat

Download on the App Store